Location: Hungerford
(51.4167°N, 1.5167°W)
Time: 22:27:21
(UTC+00:00)

SPOT 5 - Pass Details

Date: 18 September 2020
Orbit: 623 x 814 km, 98.3° (Epoch: 21 October)

Event Time Altitude Azimuth Distance (km) Brightness Sun altitude
Exits shadow 20:40:09 33° 66° (ENE) 1,318 3.9 -22.4°
Maximum altitude 20:40:20 33° 62° (ENE) 1,317 3.9 -22.5°
Drops below altitude 10° 20:45:01 10° 0° (N) 2,399 6.0 -23.1°
Sets 20:47:35 0° 351° (N) 3,346 7.0 -23.4°
